NY5V Weather Reports


Display with metric or nautical units.
time (UTC)temp
F
wind
direction
speed
MPH
gust
MPH
rain 1hr
in
rain 24hr
in
rain mn
in
humidity
%
barometer
mb
20260506134515 59 77 4.0 6.0 0.00 0.00 0.00 92 1011.8
20260506133515 59 114 4.0 4.0 0.00 0.00 0.00 93 1011.8
20260506132514 59 74 3.0 3.0 0.00 0.00 0.00 93 1011.9
20260506131515 60 98 2.0 3.0 0.00 0.00 0.00 93 1012.0
20260506130514 60 108 2.0 3.0 0.00 0.00 0.00 93 1011.6
20260506125509 60 144 3.0 3.0 0.00 0.00 0.00 93 1011.5
20260506124504 61 88 2.0 3.0 0.00 0.00 0.00 94 1011.3
20260506123500 62 69 1.0 2.0 0.00 0.00 0.00 93 1011.2
20260506122500 62 105 2.0 3.0 0.00 0.00 0.00 93 1010.9
20260506121455 62 77 2.0 2.0 0.00 0.00 0.00 92 1010.9
20260506120455 63 67 1.0 2.0 0.00 0.00 0.00 93 1010.5
20260506115450 63 62 1.0 1.0 0.00 0.00 0.00 92 1010.4
20260506114446 64 56 0.0 1.0 0.00 0.00 0.00 91 1010.3
20260506113442 65 69 1.0 2.0 0.00 0.00 0.00 88 1010.0
20260506112441 66 69 1.0 2.0 0.00 0.00 0.00 88 1010.2
20260506111436 67 79 2.0 3.0 0.00 0.00 0.00 86 1009.7
20260506110431 68 58 1.0 1.0 0.00 0.00 0.00 86 1009.6
20260506105430 68 64 1.0 1.0 0.00 0.00 0.00 86 1009.5
20260506104425 68 51 0.0 0.0 0.00 0.00 0.00 86 1009.4
20260506103420 68 50 0.0 0.0 0.00 0.00 0.00 86 1009.3
20260506102415 69 62 1.0 1.0 0.00 0.00 0.00 86 1009.0
20260506101414 71 63 2.0 2.0 0.00 0.00 0.00 84 1009.1
20260506100410 75 44 0.0 0.0 0.00 0.00 0.00 92 1008.8
20260506095406 75 45 0.0 0.0 0.00 0.00 0.00 93 1008.7
20260506094400 75 343 3.0 4.0 0.00 0.00 0.00 93 1008.5
20260506093355 75 31 1.0 2.0 0.00 0.00 0.00 92 1008.6
20260506092351 75 23 1.0 3.0 0.00 0.00 0.00 93 1008.8
20260506091345 75 13 4.0 6.0 0.00 0.00 0.00 93 1008.5
20260506090345 75 32 1.0 1.0 0.00 0.00 0.00 93 1008.5
20260506085344 75 38 2.0 3.0 0.00 0.00 0.00 93 1008.6
20260506084343 75 40 0.0 0.0 0.00 0.00 0.00 93 1008.5
20260506083343 75 35 1.0 2.0 0.00 0.00 0.00 93 1008.4
20260506082343 75 47 1.0 1.0 0.00 0.00 0.00 93 1008.2
20260506081343 75 17 1.0 3.0 0.00 0.00 0.00 93 1008.5
20260506080343 75 46 1.0 2.0 0.00 0.00 0.00 93 1008.3
20260506073333 75 28 1.0 1.0 0.00 0.00 0.00 93 1008.4
20260506072333 75 35 1.0 1.0 0.00 0.00 0.00 92 1008.9
20260506071329 75 44 0.0 0.0 0.00 0.00 0.00 91 1008.4
20260506070328 75 48 0.0 0.0 0.00 0.00 0.00 91 1008.6
20260506062311 75 46 1.0 1.0 0.00 0.00 0.00 90 1008.6
20260506061310 75 45 0.0 1.0 0.00 0.00 0.00 90 1008.3
20260506060306 76 42 0.0 0.0 0.00 0.00 0.00 90 1008.6
20260506051255 76 328 2.0 3.0 0.00 0.00 0.00 88 1008.5
20260506050250 76 46 2.0 3.0 0.00 0.00 0.00 88 1008.2
20260506044250 77 35 3.0 4.0 0.00 0.00 0.00 88 1008.3
20260506043244 77 32 2.0 2.0 0.00 0.00 0.00 87 1008.3
20260506042241 77 45 0.0 1.0 0.00 0.00 0.00 87 1008.4
20260506041241 77 16 3.0 4.0 0.00 0.00 0.00 87 1007.9
20260506040236 77 17 0.0 1.0 0.00 0.00 0.00 87 1007.6
20260506035235 77 4 2.0 2.0 0.00 0.00 0.00 87 1007.6
20260506034235 77 357 3.0 4.0 0.00 0.00 0.00 86 1007.2
20260506033230 77 34 2.0 3.0 0.00 0.00 0.00 86 1007.4
20260506032229 77 27 0.0 0.0 0.00 0.00 0.00 86 1007.1
20260506031229 78 29 1.0 1.0 0.00 0.00 0.00 86 1007.2
20260506030224 78 42 0.0 0.0 0.00 0.00 0.00 86 1007.0
20260506025223 78 44 0.0 1.0 0.00 0.00 0.00 85 1007.0
20260506024223 78 37 0.0 0.0 0.00 0.00 0.00 85 1007.0
20260506023222 78 338 3.0 3.0 0.00 0.00 0.00 85 1006.7
20260506022217 78 44 0.0 0.0 0.00 0.00 0.00 85 1006.5
20260506021217 78 44 0.0 0.0 0.00 0.00 0.00 84 1006.9
20260506020212 79 42 0.0 0.0 0.00 0.00 0.00 84 1006.8
20260506015213 79 43 0.0 0.0 0.00 0.00 0.00 83 1006.5
20260506014211 79 34 1.0 1.0 0.00 0.00 0.00 83 1006.5
20260506013206 80 42 0.0 0.0 0.00 0.00 0.00 82 1006.5
20260506012205 80 44 0.0 0.0 0.00 0.00 0.00 82 1006.4
20260506011204 80 45 0.0 1.0 0.00 0.00 0.00 81 1006.3
20260506010159 80 37 1.0 1.0 0.00 0.00 0.00 81 1006.1
20260506005159 81 33 0.0 0.0 0.00 0.00 0.00 80 1006.2
20260506004159 81 43 1.0 1.0 0.00 0.00 0.00 79 1005.4
20260506003156 81 347 1.0 2.0 0.00 0.00 0.00 79 1005.7
20260506002154 81 36 1.0 1.0 0.00 0.00 0.00 78 1005.5
20260506001154 82 40 0.0 1.0 0.00 0.00 0.00 77 1005.7
20260506000148 82 26 1.0 1.0 0.00 0.00 0.00 77 1005.5
20260505235149 82 256 6.0 9.0 0.00 0.00 0.00 76 1005.5
20260505234148 82 43 1.0 2.0 0.00 0.00 0.00 76 1005.3
20260505233148 82 40 1.0 1.0 0.00 0.00 0.00 76 1005.4
20260505232143 83 52 2.0 3.0 0.00 0.00 0.00 75 1005.4
20260505231139 83 44 2.0 2.0 0.00 0.00 0.00 75 1005.4
20260505230138 83 305 4.0 4.0 0.00 0.00 0.00 74 1005.3
20260505225137 83 40 1.0 1.0 0.00 0.00 0.00 74 1005.0
20260505224137 83 38 1.0 2.0 0.00 0.00 0.00 74 1005.1
20260505223136 83 49 0.0 1.0 0.00 0.00 0.00 75 1005.1
20260505222134 83 315 3.0 4.0 0.00 0.00 0.00 73 1004.8
20260505221134 84 6 1.0 3.0 0.00 0.00 0.00 74 1004.8
20260505220129 83 45 2.0 3.0 0.00 0.00 0.00 73 1005.2
20260505215125 82 270 3.0 4.0 0.00 0.00 0.00 74 1005.4
20260505214119 83 303 6.0 9.0 0.00 0.00 0.00 75 1005.5
20260505213118 82 33 2.0 3.0 0.00 0.00 0.00 76 1005.8
20260505212118 83 37 3.0 6.0 0.00 0.00 0.00 75 1006.1
20260505211118 82 41 4.0 7.0 0.00 0.00 0.00 75 1006.0
20260505210117 83 347 3.0 4.0 0.00 0.00 0.00 75 1006.3
20260505205113 81 31 2.0 4.0 0.00 0.00 0.00 77 1006.2
20260505204107 81 2 4.0 4.0 0.00 0.00 0.00 77 1006.2
20260505203107 82 357 1.0 2.0 0.00 0.00 0.00 76 1006.1
20260505202104 81 6 2.0 3.0 0.00 0.00 0.00 76 1006.3
20260505201059 82 31 4.0 4.0 0.00 0.00 0.00 76 1006.3
20260505200059 81 358 7.0 9.0 0.00 0.00 0.00 77 1006.3
20260505195059 81 356 5.0 9.0 0.00 0.00 0.00 77 1006.6
20260505194057 81 297 9.0 10.0 0.00 0.00 0.00 76 1006.9
20260505193058 80 43 8.0 14.0 0.00 0.00 0.00 77 1006.7
20260505192053 80 347 2.0 3.0 0.00 0.00 0.00 78 1006.7
20260505191049 80 237 4.0 6.0 0.00 0.00 0.00 79 1006.7
20260505190046 80 53 3.0 6.0 0.00 0.00 0.00 79 1006.7
20260505185045 79 35 6.0 13.0 0.00 0.00 0.00 79 1006.9
20260505184044 79 37 5.0 7.0 0.00 0.00 0.00 79 1007.1
20260505183045 79 25 3.0 8.0 0.00 0.00 0.00 80 1006.9
20260505182043 79 324 5.0 7.0 0.00 0.00 0.00 79 1007.1
20260505181044 78 29 2.0 2.0 0.00 0.00 0.00 79 1007.0
20260505180043 78 45 4.0 6.0 0.00 0.00 0.00 80 1007.0
20260505175040 78 39 4.0 6.0 0.00 0.00 0.00 81 1007.4
20260505174039 78 42 2.0 2.0 0.00 0.00 0.00 81 1007.3
20260505173039 78 302 4.0 6.0 0.00 0.00 0.00 80 1007.2
20260505172038 78 339 4.0 7.0 0.00 0.00 0.00 81 1007.4
20260505171036 77 14 5.0 7.0 0.00 0.00 0.00 82 1007.6
20260505170035 77 17 4.0 6.0 0.00 0.00 0.00 82 1007.3
20260505165032 77 17 3.0 3.0 0.00 0.00 0.00 81 1007.7
20260505164032 77 34 3.0 6.0 0.00 0.00 0.00 83 1007.6
20260505163027 76 45 1.0 2.0 0.00 0.00 0.00 84 1007.5
20260505162023 76 12 3.0 3.0 0.00 0.00 0.00 84 1007.6
20260505161023 74 330 5.0 8.0 0.00 0.00 0.00 86 1007.6
20260505153015 73 10 6.0 8.0 0.00 0.00 0.00 86 1007.3
20260505152013 73 344 3.0 4.0 0.00 0.00 0.00 86 1007.5
20260505151011 73 308 3.0 6.0 0.00 0.00 0.00 86 1007.6